Date,TemperatureHighF,TemperatureAvgF,TemperatureLowF,DewpointHighF,DewpointAvgF,DewpointLowF,HumidityHigh,HumidityAvg,HumidityLow,PressureMaxIn,PressureMinIn,WindSpeedMaxMPH,WindSpeedAvgMPH,GustSpeedMaxMPH,PrecipitationSumIn
2013-2-1,55.9,43.9,34.3,48.2,41.8,33.8,98,91,60,29.88,29.77,9,2,11,0.00
2013-2-2,47.1,38.6,33.3,44.6,38.4,33.8,98,97,86,29.85,29.77,3,1,4,0.00
2013-2-3,47.8,40.1,34.9,48.2,40.4,35.6,98,98,98,29.88,29.83,4,2,4,0.00
2013-2-4,46.0,44.4,43.5,44.6,43.7,42.8,98,95,88,29.56,29.47,3,-82,4,0.00
2013-2-5,54.5,46.5,43.3,48.2,43.2,39.2,98,87,67,29.62,29.47,11,5,14,0.09
2013-2-6,54.7,46.9,41.4,42.8,40.7,37.4,98,79,52,29.68,29.41,11,5,13,0.00
2013-2-7,54.3,41.2,32.5,42.8,37.5,33.8,98,87,49,29.68,29.47,11,3,13,0.00
2013-2-8,45.9,37.2,32.4,37.4,34.0,30.2,98,87,59,29.83,29.65,10,2,11,0.00
2013-2-9,47.8,40.2,33.8,42.8,38.3,33.8,98,91,69,29.85,29.80,0,0,0,0.00
2013-2-10,48.6,41.8,41.0,42.8,41.2,39.2,98,96,74,29.88,29.83,0,0,0,0.00
2013-2-11,48.9,42.7,41.4,39.2,39.0,37.4,92,86,62,29.91,29.88,0,-999,0,0.00
2013-2-18,42.8,42.1,40.5,37.4,34.6,32.0,88,73,69,29.38,29.32,0,-999,0,0.00
2013-2-19,54.3,41.8,34.0,41.0,37.0,32.0,98,83,51,29.56,29.21,7,-64,9,0.00
2013-2-20,50.5,40.6,33.1,41.0,37.5,32.0,98,89,53,29.68,29.53,0,-256,0,0.00
2013-2-21,45.9,40.8,36.3,42.8,39.8,37.4,98,94,74,29.80,29.68,0,-999,0,0.00
2013-2-22,45.5,42.4,36.7,44.6,40.9,35.6,98,93,75,29.77,29.47,0,-999,0,0.00
2013-2-23,48.4,39.0,31.5,42.8,37.0,30.2,98,91,69,29.97,29.65,0,-999,0,0.00
2013-2-24,54.9,42.0,30.7,42.8,34.7,30.2,98,77,43,30.00,29.65,6,-36,8,0.00
2013-2-25,54.0,42.5,34.0,42.8,37.8,28.4,98,83,42,29.91,29.59,15,5,15,0.00
2013-2-26,57.2,41.6,31.3,46.4,34.3,30.2,98,77,39,29.94,29.77,5,1,6,0.00
2013-2-27,56.3,45.5,37.4,44.6,39.5,35.6,96,80,52,29.85,29.77,6,1,10,0.00
2013-2-28,52.9,52.7,52.2,53.6,52.2,51.8,98,97,96,29.97,29.97,4,2,5,0.00